• Join FlightAware (Why Join?)
  • Login
  • US Flag 
10:34PM EST


 

Airport Tracker/Info


-or-


 

Live Flight TrackerFlight Track Log ✈ WIG7306 ✈ 28-Jan-2014 ✈ KALB - KEWR

Flight Track Log - Related Links

Times and Time Zones

All times are in EST time to prevent confusion due to time zone crossing. See the WIG7306 flight status page for this flight to view local times or setup timezone preferences in your user account.

Time Position Orientation Groundspeed Altitude Reporting Facility
EST Latitude Longitude Course Direction KTS MPH feet Rate Location/Type
10:15PM 42.7403 -73.8053 183° South 98 113 900  Level Boston Center
10:16PM 42.7183 -73.8067 183° South 108 124 1,900 1,500 Climbing Boston Center
10:17PM 42.7036 -73.8217 217° Southwest 102 117 3,000 1,680 Climbing Boston Center
10:17PM 42.6953 -73.8278 208° Southwest 106 122 3,400 1,440 Climbing Boston Center
10:18PM 42.6783 -73.8417 211° Southwest 103 119 4,500 1,440 Climbing Boston Center
10:18PM 42.6703 -73.8456 200° South 104 120 4,900 1,500 Climbing Boston Center
10:19PM 42.6544 -73.8600 214° Southwest 102 117 6,000 1,500 Climbing Boston Center
10:19PM 42.6478 -73.8642 205° Southwest 98 113 6,400 1,440 Climbing Boston Center
10:20PM 42.6306 -73.8775 210° Southwest 101 116 7,500 1,320 Climbing Boston Center
10:20PM 42.6228 -73.8819 203° Southwest 94 108 7,800 480 Climbing Boston Center
10:21PM 42.6058 -73.8972 214° Southwest 102 117 8,000 180 Climbing Boston Center
10:21PM 42.5950 -73.9044 206° Southwest 118 136 8,000  Level Boston Center
10:22PM 42.5725 -73.9239 212° Southwest 135 155 8,000  Level Boston Center
10:22PM 42.5622 -73.9311 207° Southwest 145 167 8,000 60 Level Boston Center
10:23PM 42.5400 -73.9492 211° Southwest 135 155 8,100 60 Climbing Boston Center
10:23PM 42.5300 -73.9550 203° Southwest 136 157 8,100 -120 Level Boston Center
10:24PM 42.5072 -73.9739 211° Southwest 135 155 8,000  Descending Boston Center
10:24PM 42.4969 -73.9817 209° Southwest 135 155 8,100  Climbing Boston Center
10:25PM 42.4739 -73.9994 210° Southwest 136 157 8,000 -120 Descending Boston Center
10:25PM 42.4647 -74.0056 206° Southwest 137 158 8,000 60 Level Boston Center
10:26PM 42.4408 -74.0242 210° Southwest 136 157 8,100 60 Climbing Boston Center
10:26PM 42.4317 -74.0319 212° Southwest 137 158 8,100 -120 Level Boston Center
10:27PM 42.4047 -74.0531 210° Southwest 136 157 8,000  Descending Boston Center
10:27PM 42.3994 -74.0558 201° Southwest 139 160 8,100 60 Climbing Boston Center
10:28PM 42.3711 -74.0794 212° Southwest 137 158 8,100  Level Boston Center
10:28PM 42.3664 -74.0822 203° Southwest 139 160 8,100 -120 Level Boston Center
10:29PM 42.3378 -74.1044 210° Southwest 138 159 8,000  Descending Boston Center
10:30PM 42.3061 -74.1272 208° Southwest 133 153 8,100  Climbing Boston Center
10:31PM 42.2725 -74.1547 211° Southwest 136 157 8,100  Level Boston Center
10:32PM 42.2394 -74.1817 211° Southwest 138 159 8,100  Level Boston Center
10:33PM 42.2047 -74.2058 207° Southwest 138 159 8,100 -60 Level Boston Center
10:34PM 42.1678 -74.2331 209° Southwest 141 162 8,000  Descending Boston Center
10:35PM 42.1336 -74.2575 208° Southwest 140 161 8,100  Climbing Boston Center
10:36PM 42.0997 -74.2822 208° Southwest 140 161 8,100  Level Boston Center
10:37PM 42.0653 -74.3078 209° Southwest 140 161 8,100  Level Boston Center
10:38PM 42.0328 -74.3319 209° Southwest 137 158 8,100  Level Boston Center
10:39PM 41.9978 -74.3575 208° Southwest 139 160 8,100  Level Boston Center
10:40PM 41.9631 -74.3836 209° Southwest 142 163 8,100  Level Boston Center
10:41PM 41.9289 -74.4081 208° Southwest 142 163 8,100  Level Boston Center
10:42PM 41.8911 -74.4344 207° Southwest 142 163 8,100  Level Boston Center
10:43PM 41.8575 -74.4592 209° Southwest 141 162 8,100  Level Boston Center
10:44PM 41.8233 -74.4833 208° Southwest 141 162 8,100  Level Boston Center
10:45PM 41.7897 -74.5078 208° Southwest 141 162 8,100  Level Boston Center
10:46PM 41.7547 -74.5314 207° Southwest 141 162 8,100 -60 Level Boston Center
10:47PM 41.7147 -74.5361 185° South 142 163 8,000  Descending Boston Center
10:48PM 41.6714 -74.5439 188° South 145 167 8,100 -60 Climbing Boston Center
10:49PM 41.6306 -74.5519 188° South 145 167 7,900 -600 Descending Boston Center
10:50PM 41.5864 -74.5625 190° South 159 183 7,000 -900 Descending Boston Center
10:51PM 41.5417 -74.5708 188° South 161 185 6,100 -540 Descending Boston Center
10:52PM 41.4989 -74.5769 186° South 157 181 6,000 -60 Descending Boston Center
10:53PM 41.4586 -74.5847 188° South 151 174 6,000  Level Boston Center
10:54PM 41.4178 -74.5931 189° South 150 173 6,000  Level Boston Center
10:55PM 41.3747 -74.6069 194° South 150 173 6,000  Level Boston Center
10:56PM 41.3361 -74.6222 197° South 149 171 6,000 -300 Level Boston Center
10:57PM 41.2978 -74.6011 158° South 164 189 5,400 -660 Descending Boston Center
10:58PM 41.2606 -74.5592 140° Southeast 172 198 4,700 -900 Descending Boston Center
10:59PM 41.2244 -74.5156 138° Southeast 173 199 3,700 -840 Descending Boston Center
11:00PM 41.1833 -74.4667 138° Southeast 163 188 3,000 -360 Descending New York TRACON
11:01PM 41.1500 -74.4333 143° Southeast 150 173 3,000  Level New York TRACON
11:02PM 41.1167 -74.4000 143° Southeast 161 185 3,000  Level New York TRACON
11:03PM 41.0833 -74.3500 131° Southeast 151 174 3,000  Level New York TRACON
11:04PM 41.0500 -74.3167 143° Southeast 201 231 3,000  Level New York TRACON
11:05PM 41.0333 -74.2833 124° Southeast 148 170 3,000  Level New York TRACON
11:06PM 41.0000 -74.2333 131° Southeast 153 176 3,000  Level New York TRACON
11:07PM 40.9667 -74.2000 143° Southeast 153 176 3,000  Level New York TRACON
11:08PM 40.9333 -74.1667 143° Southeast 151 174 3,000  Level New York TRACON
11:09PM 40.9000 -74.1333 143° Southeast 155 178 3,000  Level New York TRACON
11:10PM 40.8667 -74.1000 143° Southeast 151 174 3,000 -300 Level New York TRACON
11:11PM 40.8167 -74.1000 180° South 161 185 2,500 -540 Descending New York TRACON
11:12PM 40.7667 -74.1167 194° South 158 182 1,900 -780 Descending New York TRACON
11:13PM 40.7333 -74.1333 201° Southwest 164 189 900 -1,020 Descending New York TRACON
11:15PM 40.6900 -74.1622 207° Southwest  Level FlightAware Approximate
11:22PM 40.6833 -74.1667 185° South  Level FlightAware Approximate
11:23PM 40.6925 -74.1687 185° South  Level Estimated